Rechercher aéroport 
image banner adimage banner adimage banner ad
image banner ad

O88 - Rio Vista Muni

Situé à Rio Vista, United States

ICAO - O88, IATA -

Données fournies par Airmate  

Information générale

Coordonnées: N38°11'36" W121°42'13"
Élévation : 23 feet MSL.
Variation magnétique : 14° East
Voir autres Aéroports à California

Données opérationnelles

Special qualification required
Heure actuelle UTC:
Heure actuelle locale:
Météo à : KSUU - Travis Afb ( 21 km )
METAR: KSUU 212258Z AUTO 00000KT 10SM CLR 37/07 A3002 RMK AO2 SLP172 T03680068 $
TAF: TAF KSUU 211900Z 2119/2301 03009KT 9000 HZ SKC QNH3008INS BECMG 2123/2124 23010G15KT 9000 HZ SKC QNH3002INS BECMG 2203/2204 23012G18KT 9000 HZ SKC QNH3000INS BECMG 2215/2216 23015G25KT 9000 HZ SKC QNH3004INS TX39/2123Z TN14/2213Z
Voir NOTAMs / SUP AIP / TFR affectant cet aéroport [VIEW]
Fréquences de communication: [VIEW]

Pistes:

Identifiant RWYQFULongueur (ft)Largeur (ft)SurfaceLDA (ft)
0786°419975ASPH
25266°419975ASPH
15160°219960ASPH
33340°219960ASPH

Coordonnées de l'aéroport

Adresse: Rio Vista United States

Autres services d'aviation

Écoles de pilotage

Travis Aero Club

Travis Aero Club

Vue satellite de O88